User: anonymous   Login
Location: Breitenfeld
(46.8500°N, 15.6333°E)
Time: 12:30:18
(UTC+00:00)
Language:

Cosmos 2322 Rocket - Orbit

View from above orbital plane
View from above orbital plane
View from above satellite
View from above satellite

Ground track
Ground track

The orbit data is extracted from the following two-line orbital elements,

1 23705U 95058B   20191.78279185 +.00000177 +00000-0 +11549-3 0  9992
2 23705 071.0193 202.1031 0011440 024.2600 335.9059 14.15136812275137
Epoch (UTC): 09 July 2020 18:47:13
Eccentricity: 0.0011440
inclination: 71.0193°
perigee height: 833 km
apogee height: 850 km
right ascension of ascending node: 202.1031°
argument of perigee: 24.2600°
revolutions per day: 14.15136812
mean anomaly at epoch: 335.9059°
orbit number at epoch: 27513

The dashed part of the orbit path shows where the satellite is in the earth's shadow,  

DLR